Regional Weather Roundup
Issued by NWS

Home | Current Version | Previous Version | Text Only | Print | Product List | Glossary On
Versions: 1 2 3 4 5 6 7 8 9 10 11 12 13 14 15 16 17 18 19 20 21 22 23 24 25 26 27 28
000
ASUS42 KKEY 040010
RWRKEY

FLORIDA REGIONAL WEATHER ROUNDUP FOR THE FLORIDA KEYS
NATIONAL WEATHER SERVICE KEY WEST FLORIDA
700 PM EST SAT DEC 03 2016

...SOUTH FLORIDA AND THE KEYS...

CITY           SKY/WX    TMP DP  RH WIND       PRES   REMARKS
FORT MYERS     CLEAR     74  60  61 E8        30.06R
SW REGIONAL AP CLEAR     73  59  61 E13       30.07R
NAPLES         CLEAR     75  62  64 E10       30.04R
MIAMI          PTCLDY    74  64  71 NE9       30.06R
WEST KENDALL   PTCLDY    74  65  73 NE8       30.05R
HOMESTEAD      MOCLDY    74  67  80 NE10      30.04R
MARATHON       PTCLDY    79  70  74 NE12G21   30.02R
BOCA CHICA NAS CLEAR     76  70  82 E12       30.01R
KEY WEST INTL  CLEAR     77  72  84 E8        30.02R

...INTERNATIONAL WEATHER...

CITY           SKY/WX    TMP DP  RH WIND       PRES   REMARKS
NASSAU BAHAMAS NOT AVBL
CANCUN MEXICO  PTCLDY    81  77  89 E6        29.91S
COZUMEL MEXICO PTCLDY    79  77  94 CALM      29.88S

ADJACENT COASTAL WATERS...

STATION/POSITION TIME  SKY/WX   TEMP    WIND        PRES    WAVE
                                AIR SEA DIR/SP/G            HT/PER
                 (UTC)          (F)     (DEG/KT/KT) (MB)    (FT/S)
PULASKI SHOAL LI 0000            77      90/ 21/ 23 1016.1R
SAND KEY         2350            77      90/ 21/ 23 1016.7R
LONG KEY         0000            77 78   60/ 17/ 19 1017.1R
FOWEY ROCKS      0000            76 78   50/ 16/ 18 1018.2R

$$




USA.gov is the U.S. government's official web portal to all federal, state and local government web resources and services.